Simultaneous Nadir Overpasses (SNOs) Predictions

Prediction of SNOs between METOP-B and NPP Satellite Orbit:

Table of predicted SNOs for the next 14.0 days since TLE Epoch: 11/1/2024
Index Date (METOP-B) Time (METOP-B) Lat,Lon (METOP-B) SZA (METOP-B ) Date (NPP) Time (NPP) Lat,Lon (NPP) SZA (NPP ) Distance(km) Time Diff (sec)
1 11/14/2024 07:56:44 74.18, 52.07 92.53 11/14/2024 07:55:36 74.19, 49.65 92.61 73.30 68
2 11/14/2024 08:47:28 -74.08,-140.86 87.56 11/14/2024 08:46:18 -74.10,-142.80 87.48 59.42 70
3 11/14/2024 09:38:12 73.84, 25.91 92.23 11/14/2024 09:36:59 73.85, 25.10 92.27 24.91 73
4 11/14/2024 10:28:55 -73.79,-166.88 87.82 11/14/2024 10:27:41 -73.76,-167.36 87.83 15.23 74
5 11/14/2024 11:19:37 73.65, 0.13 92.07 11/14/2024 11:18:25 73.66, 0.18 92.08 1.96 72
6 11/14/2024 12:10:19 -73.65, 167.45 87.93 11/14/2024 12:09:09 -73.67, 167.48 87.90 2.04 70
7 11/14/2024 13:00:58 73.66, -25.19 92.09 11/14/2024 12:59:55 73.67, -25.21 92.11 1.02 63
8 11/14/2024 13:51:40 -73.66, 142.13 87.90 11/14/2024 13:50:39 -73.68, 142.09 87.88 2.29 61
9 11/14/2024 14:42:19 73.67, -50.51 92.12 11/14/2024 14:41:25 73.68, -50.61 92.14 3.12 54
10 11/14/2024 15:33:02 -73.62, 116.70 87.92 11/14/2024 15:32:08 -73.64, 116.81 87.90 3.72 54
11 11/14/2024 16:23:41 73.63, -75.94 92.10 11/14/2024 16:22:54 73.64, -75.88 92.11 1.93 47
12 11/14/2024 17:14:23 -73.63, 91.38 87.90 11/14/2024 17:13:38 -73.65, 91.41 87.88 1.82 45
13 11/14/2024 18:05:02 73.64,-101.26 92.13 11/14/2024 18:04:24 73.65,-101.28 92.14 0.79 38
14 11/14/2024 18:55:44 -73.64, 66.07 87.87 11/14/2024 18:55:08 -73.65, 66.02 87.85 2.05 36
15 11/14/2024 19:46:23 73.65,-126.58 92.15 11/14/2024 19:45:54 73.65,-126.67 92.16 3.00 29
16 11/14/2024 20:37:06 -73.60, 40.64 87.89 11/14/2024 20:36:37 -73.61, 40.74 87.88 3.66 29
17 11/14/2024 21:27:45 73.61,-152.01 92.13 11/14/2024 21:27:23 73.61,-151.95 92.14 1.93 22
18 11/14/2024 22:18:27 -73.61, 15.32 87.86 11/14/2024 22:18:07 -73.62, 15.35 87.85 1.65 20
19 11/14/2024 23:09:06 73.62,-177.33 92.16 11/14/2024 23:08:53 73.62,-177.34 92.17 0.62 13
20 11/14/2024 23:59:48 -73.62, -10.00 87.84 11/14/2024 23:59:37 -73.63, -10.04 87.82 1.86 11
21 11/15/2024 00:50:27 73.63, 157.36 92.19 11/15/2024 00:50:23 73.63, 157.26 92.19 2.92 4
22 11/15/2024 01:41:10 -73.58, -35.43 87.86 11/15/2024 01:41:06 -73.59, -35.32 87.85 3.63 4
23 11/15/2024 02:31:49 73.59, 131.92 92.17 11/15/2024 02:31:52 73.59, 131.99 92.17 1.96 3



Historial Predications of SNOs between METOP-B and NPP
